Weather History for KSBM - July, 2013

Change the Weather History Date:

Thursday, July 18, 2013

  Actual Average Record
Temperature  
Mean Temperature 82 °F -  
Max Temperature 93 °F 82 °F 99 °F (1986)
Min Temperature 72 °F 63 °F 46 °F (2000)
Cooling Degree Days 18    
Growing Degree Days 32 (Base 50)    
Moisture  
Dew Point 72 °F    
Average Humidity 69    
Maximum Humidity 97    
Minimum Humidity 47    
Precipitation  
Precipitation 0.00 in - - ()
Sea Level Pressure  
Sea Level Pressure 30.01 in    
Wind  
Wind Speed 7 mph (SW)    
Max Wind Speed 18 mph    
Max Gust Speed 25 mph    
Visibility 10 miles    
Events      
Averages and records for this station are not official NWS values.
T = Trace of Precipitation, MM = Missing Value Source: NWS Daily Summary

Daily Weather History Graph

Daily Weather History Graph

Search for Another Location

Airport or City:

Trip Planner

Search our weather history database for the weather conditions in past years. The results will help you decide how hot, cold, wet, or windy it might be!

Date:

Astronomy

Jul. 18, 2013 Rise Set
Actual Time 5:26 AM CDT 8:28 PM CDT
Civil Twilight 4:51 AM CDT 9:02 PM CDT
Nautical Twilight 4:07 AM CDT 9:46 PM CDT
Astronomical Twilight 3:15 AM CDT 10:38 PM CDT
Moon 4:24 PM CDT (7/18) 1:18 AM CDT (7/18)
Length of Visible Light 16h 11m
Length of Day
15h 02m
Waxing Gibbous, 77% of the Moon is Illuminated
Jul 18
Waxing Gibbous
Jul 22
Full
Jul 29
Last Quarter
Aug 6
New
Aug 14
First Quarter

Hourly Weather History & Observations

Time (CDT) Temp. Heat Index Dew Point Humidity Pressure Visibility Wind Dir Wind Speed Gust Speed Precip Events Conditions
12:53 AM 73.9 °F - 73.0 °F 97% 30.15 in 10.0 mi SW 3.5 mph - N/A   Clear
1:53 AM 73.0 °F - 72.0 °F 96% 30.14 in 10.0 mi WSW 3.5 mph - N/A   Clear
2:53 AM 73.9 °F - 73.0 °F 97% 30.13 in 10.0 mi WSW 3.5 mph - N/A   Clear
3:53 AM 73.0 °F - 72.0 °F 96% 30.12 in 10.0 mi Calm Calm - N/A   Clear
4:53 AM 73.0 °F - 71.1 °F 93% 30.12 in 10.0 mi SSW 3.5 mph - N/A   Clear
5:53 AM 72.0 °F - 71.1 °F 97% 30.11 in 10.0 mi Calm Calm - N/A   Clear
6:53 AM 78.1 °F - 73.0 °F 84% 30.09 in 10.0 mi SW 3.5 mph - N/A   Clear
7:53 AM 82.9 °F 90.2 °F 75.0 °F 77% 30.09 in 10.0 mi SW 5.8 mph - N/A   Clear
8:53 AM 86.0 °F 93.8 °F 73.9 °F 67% 30.09 in 10.0 mi SW 6.9 mph - N/A   Clear
9:53 AM 89.1 °F 97.0 °F 73.0 °F 59% 30.08 in 10.0 mi West 11.5 mph - N/A   Clear
10:53 AM 91.0 °F 99.3 °F 73.0 °F 55% 30.07 in 10.0 mi West 10.4 mph - N/A   Clear
11:53 AM 91.9 °F 99.5 °F 72.0 °F 52% 30.05 in 10.0 mi SW 11.5 mph - N/A   Partly Cloudy
12:53 PM 93.0 °F 99.0 °F 70.0 °F 47% 30.02 in 10.0 mi WSW 12.7 mph 20.7 mph N/A   Partly Cloudy
1:53 PM 91.9 °F 98.4 °F 71.1 °F 50% 29.99 in 10.0 mi WSW 15.0 mph - N/A   Partly Cloudy
2:53 PM 91.9 °F 99.5 °F 72.0 °F 52% 29.98 in 10.0 mi SW 18.4 mph 25.3 mph N/A   Scattered Clouds
3:53 PM 93.0 °F 100.7 °F 72.0 °F 50% 29.95 in 10.0 mi WSW 13.8 mph - N/A   Clear
4:53 PM 93.0 °F 100.1 °F 71.1 °F 49% 29.92 in 10.0 mi SW 17.3 mph 24.2 mph N/A   Clear
5:53 PM 91.9 °F 99.5 °F 72.0 °F 52% 29.91 in 10.0 mi SW 15.0 mph - N/A   Partly Cloudy
6:53 PM 89.1 °F 95.0 °F 71.1 °F 55% 29.89 in 10.0 mi WSW 11.5 mph - N/A   Clear
7:53 PM 87.1 °F 92.8 °F 71.1 °F 59% 29.87 in 10.0 mi SW 12.7 mph - N/A   Clear
8:53 PM 84.9 °F 90.1 °F 71.1 °F 63% 29.87 in 10.0 mi SW 11.5 mph - N/A   Clear
9:53 PM 82.9 °F 88.0 °F 72.0 °F 69% 29.88 in 10.0 mi SW 10.4 mph - N/A   Clear
10:53 PM 81.0 °F 85.2 °F 72.0 °F 74% 29.88 in 10.0 mi SW 9.2 mph - N/A   Clear
11:53 PM 80.1 °F 83.8 °F 72.0 °F 76% 29.86 in 10.0 mi SW 8.1 mph - N/A   Clear